This demonstration page uses our WeatherBlox Daily Observations layout. Learn more.

Left ArrowRight Arrow

31.31129, -92.44514

Hourly Observations for December 29, 2019

Temp ( °F °C ) Dew Point ( °F °C ) Humidity (%) Winds ( mph kmh ) Pressure ( in mb ) Visibility ( mi km ) Precip ( " mm )
12:40 am 00:40 Cloudy with Light Rain 68 20 66 18.9 93 93 WSW 5 7 29.81 1009 10 16 0.00 0.00
12:53 am 00:53 Cloudy 69 20.6 67 19.4 93 93 S 6 9 29.81 1010 10 16 0.00 0.00
1:03 am 01:03 Mostly Cloudy 69 20.6 66 18.9 90 90 S 8 13 29.80 1009 10 16 0.00 0.00
1:53 am 01:53 Mostly Cloudy 68 20 66 18.9 93 93 SSE 8 13 29.79 1009 10 16 0.00 0.00
2:53 am 02:53 Cloudy 68 20 66 18.9 93 93 SSE 6 9 29.79 1009 10 16 0.00 0.00
3:14 am 03:14 Cloudy with Light Rain 68 20 66 18.9 93 93 SSE 10 17 29.78 1008 9 14 0.00 0.00
3:29 am 03:29 Cloudy 68 20 66 18.9 93 93 S 6 9 29.78 1008 10 16 0.00 0.00
3:53 am 03:53 Cloudy 68 20 66 18.9 93 93 Calm 29.78 1009 10 16 0.00 0.00
4:04 am 04:04 Cloudy with Light Rain 63 17.2 60 15.6 90 90 NW 13 20 29.79 1009 7 11 0.01 0.25
4:12 am 04:12 Cloudy with Light Rain 61 16.1 58 14.4 90 90 NNW 12 19 29.78 1008 8 13 0.01 0.25
4:31 am 04:31 Cloudy 59 15 56 13.3 90 90 NW 12 19 29.79 1009 10 16 0.01 0.25
4:53 am 04:53 Cloudy with Rain 58 14.4 56 13.3 93 93 NW 9 15 29.81 1010 7 11 0.02 0.51
5:01 am 05:01 Cloudy with Rain 58 14.4 56 13.3 93 93 NNW 10 17 29.80 1009 5 8 0.01 0.25
5:53 am 05:53 Cloudy 57 13.9 56 13.3 96 96 NNW 5 7 29.80 1009 10 16 0.02 0.51
6:53 am 06:53 Cloudy with Light Rain 57 13.9 56 13.3 96 96 VRB 3 6 29.78 1009 9 14 0.01 0.25
7:43 am 07:43 Cloudy with Light Rain 58 14.4 56 13.3 93 93 Calm 29.79 1009 5 8 0.00 0.00
7:53 am 07:53 Cloudy with Light Rain 58 14.4 56 13.3 93 93 NNE 5 7 29.80 1009 4 6 0.01 0.25
7:59 am 07:59 Cloudy with Rain 58 14.4 56 13.3 93 93 NNW 5 7 29.80 1009 2 3 0.01 0.25
8:06 am 08:06 Cloudy with Heavy Rain 57 13.9 56 13.3 96 96 NW 7 11 29.82 1010 1 2 0.08 2.03
8:13 am 08:13 Cloudy with Heavy Rain 57 13.9 56 13.3 96 96 Calm 29.81 1009 1 1 0.13 3.30
8:21 am 08:21 Cloudy with Light Rain 57 13.9 56 13.3 96 96 ENE 5 7 29.80 1009 2 3 0.14 3.56
8:29 am 08:29 Cloudy with Light Rain 57 13.9 56 13.3 96 96 ENE 3 6 29.80 1009 7 11 0.14 3.56
8:53 am 08:53 Cloudy with Light Rain 58 14.4 56 13.3 93 93 NE 5 7 29.80 1009 7 11 0.14 3.56
9:04 am 09:04 Cloudy with Light Rain 57 13.9 56 13.3 96 96 NE 3 6 29.79 1009 3 5 0.01 0.25
9:53 am 09:53 Cloudy 58 14.4 56 13.3 93 93 E 8 13 29.78 1008 10 16 0.03 0.76
9:56 am 09:56 Mostly Cloudy 58 14.4 57 13.9 97 97 ESE 9 15 29.77 1008 10 16 0.00 0.00
10:10 am 10:10 Mostly Cloudy 59 15 57 13.9 93 93 E 13 20 29.77 1008 10 16 0.00 0.00
10:53 am 10:53 Cloudy 59 15 58 14.4 96 96 E 5 7 29.77 1008 10 16 0.00 0.00
11:05 am 11:05 Cloudy 60 15.6 58 14.4 93 93 VRB 5 7 29.73 1007 10 16 0.00 0.00
11:40 am 11:40 Cloudy 60 15.6 58 14.4 93 93 NW 8 13 29.72 1006 10 16 0.00 0.00
11:53 am 11:53 Cloudy with Light Rain 59 15 57 13.9 93 93 N 8 13 29.72 1007 8 13 0.00 0.00
12:00 pm 12:00 Cloudy with Light Rain 59 15 58 14.4 96 96 NE 3 6 29.70 1006 6 10 0.00 0.00
12:38 pm 12:38 Cloudy with Nearby Thunderstorms 57 13.9 55 12.8 93 93 NW 17 28 29.70 1006 9 14 0.01 0.25
12:41 pm 12:41 Cloudy with Thunderstorms 56 13.3 54 12.2 93 93 NW 18 30 29.71 1006 5 8 0.03 0.76
12:44 pm 12:44 Cloudy with Strong Thunderstorms 56 13.3 54 12.2 93 93 NW 21 33 29.71 1006 2 3 0.06 1.52
12:51 pm 12:51 Cloudy with Strong Thunderstorms 55 13 54 12 94 94 N 15 24 29.69 1005 1 2 0.14 3.56
12:53 pm 12:53 Cloudy with Strong Thunderstorms 56 13.3 54 12.2 93 93 N 12 19 29.70 1006 1 2 0.15 3.81
1:00 pm 13:00 Cloudy with Strong Thunderstorms 55 12.8 54 12.2 96 96 NNW 9 15 29.72 1006 1 1 0.16 4.06
1:16 pm 13:16 Cloudy with Nearby Thunderstorms 56 13.3 55 12.8 97 97 ENE 3 6 29.70 1006 2 3 0.39 9.91
1:21 pm 13:21 Cloudy with Nearby Thunderstorms 56 13.3 55 12.8 97 97 N 5 7 29.70 1006 3 5 0.40 10.16
1:32 pm 13:32 Cloudy with Light Rain 57 13.9 55 12.8 93 93 NW 10 17 29.71 1006 10 16 0.40 10.16
1:39 pm 13:39 Cloudy 56 13.3 55 12.8 97 97 NW 15 24 29.70 1006 10 16 0.40 10.16
1:49 pm 13:49 Cloudy with Light Rain 55 13 54 12 94 94 NW 20 31 29.72 1006 10 16 0.40 10.16
1:53 pm 13:53 Cloudy with Rain 56 13.3 54 12.2 93 93 NW 13 20 29.74 1007 6 10 0.40 10.16
2:04 pm 14:04 Cloudy with Heavy Rain 55 12.8 54 12.2 96 96 NW 21 33 29.75 1007 2 3 0.04 1.02
2:14 pm 14:14 Cloudy with Light Rain 55 12.8 53 11.7 93 93 NW 16 26 29.75 1007 6 10 0.05 1.27
2:21 pm 14:21 Cloudy with Light Rain 54 12.2 52 11.1 93 93 NW 15 24 29.75 1007 10 16 0.05 1.27
2:37 pm 14:37 Cloudy with Light Rain 54 12.2 51 10.6 90 90 NW 10 17 29.76 1008 10 16 0.05 1.27
2:53 pm 14:53 Cloudy 54 12.2 51 10.6 90 90 NW 12 19 29.78 1009 10 16 0.05 1.27
3:53 pm 15:53 Mostly Cloudy 54 12.2 51 10.6 90 90 NNW 7 11 29.80 1009 10 16 0.00 0.00
4:53 pm 16:53 Sunny 54 12.2 51 10.6 90 90 WNW 9 15 29.83 1010 10 16 0.00 0.00
5:53 pm 17:53 Clear 52 11.1 50 10 93 93 Calm 29.86 1011 10 16 0.00 0.00
6:53 pm 18:53 Clear 51 10.6 49 9.4 92 92 S 5 7 29.88 1012 10 16 0.00 0.00
7:53 pm 19:53 Clear 51 10.6 50 10 96 96 Calm 29.90 1013 10 16 0.00 0.00
8:19 pm 20:19 Clear with Mist and Fog 50 10 49 9.4 96 96 Calm 29.91 1013 3 4 0.00 0.00
8:26 pm 20:26 Clear 50 10 49 9.4 96 96 Calm 29.91 1013 7 11 0.00 0.00
8:53 pm 20:53 Clear 51 10.6 49 9.4 92 92 W 9 15 29.93 1014 10 16 0.00 0.00
9:53 pm 21:53 Clear 50 10 43 6.1 77 77 WNW 14 22 29.96 1015 10 16 0.00 0.00
10:53 pm 22:53 Clear 48 8.9 40 4.4 74 74 NW 15 24 29.98 1015 10 16 0.00 0.00
11:53 pm 23:53 Clear 46 7.8 39 3.9 77 77 NW 10 17 29.99 1016 10 16 0.00 0.00

Powered by AerisWeather